Content
SEND FEEDBACK

Daily
Averages
Monthly
Summary
United States of America

MERIZO, GUAM


Home > North America > United States > Guam
Elevation: 3 meters     Latitude: 13 14N     Longitude: 144 39E

WEATHER
 
SELECT A DAY
Number of Records: 342,166;   Date Range: 1/1/95 - 8/12/14
 
SHARE

PRINT THIS DATA

[ ← Previous Day ]
WEATHER ALMANAC - 21 AUGUST, 2013
[ Next Day → ]
[ °F ]   °C
Weather ElementAverageHighLow
Temperature26.1 °C28.2 °C (2:55 pm)24 °C (9:21 am)
Dewpoint24.3 °C25.2 °C (1:55 pm)23 °C (9:21 am)
Humidity90.4 %100 % (9:00 am)79 % (4:12 pm)
Barometer1008.5 hPa1010.5 hPa (9:06 am)1006.1 hPa (3:55 pm)
Wind Speed15.3 km/h27.8 km/h (9:00 am)
Wind Gust33.3 km/h (9:10 am)
Weather ElementAverage
Visibility12.6 km
Wind DirectionENE (66.9 °)

Weather ElementTotal
Precipitation35.31 mm
Cooling Degree Days7.8 (Base 18.3)
Growing Degree Days16.1 (Base 10)
Averaged from 105 records on 21 August, 2013
WEATHER CONDITIONS BREAKOUT
WIND DIRECTION BREAKOUT
WEATHER BY HOUR - 21 AUGUST, 2013
[ °F ]   °C
Local TimeTemperatureDewpointHumidityBarometerVisibilityWind DirectionWind SpeedGust SpeedPrecipitationEventsConditions
1:51 AM27 °C25 °C89 %1008.1 hPa8 kmEast (80°)20.4 km/hRainLight Rain
1:53 AM27 °C25 °C89 %1007.8 hPa4 kmESE (110°)13 km/hRainHeavy Rain
1:55 AM26.5 °C24.3 °C88 %1008.1 hPa4 kmESE (110°)11.1 km/h2.29 mmRainHeavy Rain
2:01 AM26 °C25 °C94 %1007.8 hPa4.8 kmENE (60°)14.8 km/hRainLight Rain
2:04 AM26 °C25 °C94 %1007.8 hPa14.5 kmENE (70°)18.5 km/hMostly Cloudy
2:15 AM27 °C24 °C84 %1007.8 hPa16.1 kmEast (80°)22.2 km/hMostly Cloudy
2:16 AM27 °C24 °C84 %1007.8 hPa16.1 kmEast (80°)22.2 km/hMostly Cloudy
2:18 AM27 °C24 °C84 %1007.8 hPa16.1 kmEast (80°)18.5 km/hScattered Clouds
2:55 AM26.7 °C24.5 °C88 %1007.8 hPa16.1 kmEast (90°)16.7 km/h0 mmScattered Clouds
3:34 AM27 °C25 °C89 %1007.5 hPa16.1 kmEast (100°)13 km/hMostly Cloudy
3:55 AM26.8 °C24.3 °C86 %1007.8 hPa16.1 kmEast (80°)16.7 km/hMostly Cloudy
3:59 AM27 °C24 °C84 %1007.8 hPa16.1 kmENE (70°)20.4 km/hScattered Clouds
4:11 AM27 °C25 °C89 %1007.5 hPa11.3 kmEast (100°)20.4 km/hRainLight Rain
4:21 AM27 °C24 °C84 %1007.5 hPa14.5 kmEast (80°)14.8 km/hPartly Cloudy
4:35 AM27 °C25 °C89 %1007.5 hPa16.1 kmEast (100°)13 km/hMostly Cloudy
4:38 AM27 °C25 °C89 %1007.5 hPa16.1 kmEast (100°)13 km/hScattered Clouds
4:55 AM26.4 °C24.8 °C91 %1007.8 hPa16.1 kmEast (90°)14.8 km/h0.25 mmPartly Cloudy
5:55 AM26.1 °C24.4 °C90 %1008.1 hPa16.1 kmEast (90°)9.3 km/hClear
6:55 AM25.5 °C24.3 °C93 %1008.5 hPa16.1 kmNorth (10°)7.4 km/hClear
7:55 AM26.8 °C24.8 °C89 %1008.8 hPa16.1 kmNorth (10°)7.4 km/hClear
8:43 AM27 °C25 °C89 %1009.5 hPa16.1 kmNorth (10°)13 km/hThunderstormThunderstorm
8:49 AM27 °C25 °C89 %1009.5 hPa16.1 kmNNE (30°)24.1 km/hThunderstormThunderstorm
8:55 AM26 °C24.8 °C93 %1009.8 hPa8 kmNE (40°)24.1 km/h0.76 mmRain-ThunderstormHeavy Thunderstorms and Rain
8:57 AM26 °C25 °C94 %1009.8 hPa4.8 kmNE (40°)20.4 km/hRain-ThunderstormHeavy Thunderstorms and Rain
8:58 AM26 °C25 °C94 %1009.8 hPa4.8 kmNE (40°)18.5 km/hRain-ThunderstormHeavy Rain
8:59 AM26 °C25 °C94 %1009.8 hPa4 kmNE (40°)22.2 km/hRain-ThunderstormHeavy Rain
9:00 AM25 °C25 °C100 %1009.8 hPa3.2 kmNNE (30°)27.8 km/hRain-ThunderstormHeavy Rain
9:01 AM25 °C25 °C100 %1010.2 hPa2.9 kmNNE (20°)27.8 km/hRain-ThunderstormHeavy Rain
9:02 AM25 °C25 °C100 %1010.2 hPa1.9 kmNNE (30°)24.1 km/hRain-ThunderstormHeavy Rain
9:03 AM25 °C25 °C100 %1010.2 hPa1.6 kmNNE (30°)24.1 km/hRain-ThunderstormHeavy Rain
9:06 AM25 °C24 °C94 %1010.5 hPa1.3 kmNNE (20°)11.1 km/h27.8 km/hRain-ThunderstormHeavy Rain
9:09 AM25 °C24 °C94 %1010.5 hPa0.8 kmNE (50°)22.2 km/h31.5 km/hFog-Rain-ThunderstormHeavy Rain
9:10 AM25 °C24 °C94 %1010.5 hPa0.8 kmNE (50°)24.1 km/h33.3 km/hFog-RainHeavy Rain
9:21 AM24 °C23 °C94 %1010.2 hPa1.3 kmNE (40°)18.5 km/hRainHeavy Rain
9:24 AM24 °C23 °C94 %1010.2 hPa1.6 kmNE (40°)14.8 km/hRainHeavy Rain
9:26 AM24 °C23 °C94 %1009.8 hPa1.9 kmNNE (30°)14.8 km/hRainHeavy Rain
9:28 AM24 °C23 °C94 %1009.8 hPa2.9 kmNNE (20°)14.8 km/hRainHeavy Rain
9:29 AM24 °C23 °C94 %1009.8 hPa3.2 kmNNE (20°)11.1 km/hRainHeavy Rain
9:30 AM24 °C23 °C94 %1009.8 hPa4 kmNNE (20°)11.1 km/hRainHeavy Rain
9:32 AM24 °C23 °C94 %1009.8 hPa4.8 kmNorth (10°)16.7 km/hRainHeavy Rain
9:36 AM24 °C23 °C94 %1009.8 hPa6.4 kmNorth (360°)9.3 km/hRainRain
9:42 AM24 °C23 °C94 %1009.5 hPa8 kmNNW (340°)7.4 km/hRainLight Rain
9:43 AM24 °C23 °C94 %1009.5 hPa8 kmNNW (340°)7.4 km/hRainLight Rain
9:55 AM24 °C23 °C94 %1009.5 hPa12.9 kmNNE (20°)11.1 km/h27.43 mmRainLight Rain
9:58 AM24 °C23 °C94 %1009.5 hPa8 kmNNE (20°)9.3 km/hRain-ThunderstormLight Thunderstorms and Rain
10:13 AM24 °C24 °C100 %1009.1 hPa16.1 kmCalmRainLight Rain
10:15 AM24 °C24 °C100 %1009.1 hPa16.1 kmVariable7.4 km/hPartly Cloudy
10:24 AM25 °C24 °C94 %1009.1 hPa16.1 kmNNE (30°)16.7 km/hRainLight Rain
10:28 AM25 °C24 °C94 %1009.1 hPa14.5 kmNE (40°)13 km/hRainRain
10:40 AM26 °C24 °C89 %1009.1 hPa16.1 kmNE (50°)13 km/hPartly Cloudy
10:55 AM26.9 °C24.1 °C85 %1009.1 hPa16.1 kmNNE (30°)14.8 km/h0.76 mmPartly Cloudy
11:55 AM26.9 °C24.6 °C87 %1008.5 hPa16.1 kmNE (50°)14.8 km/hPartly Cloudy
12:22 PM26 °C25 °C94 %1008.1 hPa16.1 kmNE (50°)16.7 km/hLight Drizzle
12:38 PM26 °C25 °C94 %1008.1 hPa16.1 kmNE (40°)14.8 km/hClear
12:55 PM26.8 °C24.7 °C88 %1007.8 hPa16.1 kmNNE (30°)14.8 km/h0 mmPartly Cloudy
1:16 PM28 °C25 °C84 %1007.8 hPa16.1 kmNorth (10°)14.8 km/hMostly Cloudy
1:54 PM28 °C25 °C84 %1007.5 hPa16.1 kmNNE (20°)13 km/hMostly Cloudy
1:55 PM27.8 °C25.2 °C86 %1007.5 hPa16.1 kmNNE (20°)13 km/hMostly Cloudy
1:56 PM28 °C25 °C84 %1007.5 hPa16.1 kmNNE (20°)13 km/hMostly Cloudy
1:58 PM28 °C25 °C84 %1007.5 hPa16.1 kmNNE (30°)14.8 km/hMostly Cloudy
1:59 PM28 °C25 °C84 %1007.5 hPa16.1 kmNNE (30°)14.8 km/hMostly Cloudy
2:02 PM28 °C25 °C84 %1007.5 hPa16.1 kmNorth (10°)14.8 km/hMostly Cloudy
2:04 PM28 °C25 °C84 %1007.5 hPa16.1 kmNNE (20°)16.7 km/hMostly Cloudy
2:09 PM28 °C25 °C84 %1007.1 hPa16.1 kmNNE (20°)14.8 km/hMostly Cloudy
2:14 PM28 °C25 °C84 %1007.1 hPa16.1 kmNNE (20°)13 km/hMostly Cloudy
2:20 PM28 °C25 °C84 %1006.8 hPa16.1 kmNNE (30°)13 km/hMostly Cloudy
2:24 PM28 °C25 °C84 %1006.8 hPa16.1 kmNorth (10°)13 km/hMostly Cloudy
2:55 PM28.2 °C24.8 °C82 %1006.8 hPa16.1 kmNorth (10°)13 km/hScattered Clouds
3:55 PM28 °C24.6 °C82 %1006.1 hPa16.1 kmNE (50°)7.4 km/hPartly Cloudy
4:06 PM28 °C25 °C84 %1006.1 hPa16.1 kmENE (70°)13 km/hMostly Cloudy
4:12 PM28 °C24 °C79 %1006.1 hPa16.1 kmENE (60°)13 km/hScattered Clouds
4:55 PM27.6 °C24.9 °C85 %1006.4 hPa16.1 kmENE (60°)14.8 km/hPartly Cloudy
5:55 PM27.2 °C24.2 °C84 %1007.1 hPa16.1 kmENE (70°)14.8 km/hPartly Cloudy
6:49 PM27 °C25 °C89 %1007.5 hPa16.1 kmNE (40°)16.7 km/hRainRain
6:55 PM26.4 °C24.7 °C90 %1007.5 hPa16.1 kmNE (40°)16.7 km/h0 mmRainLight Rain
6:58 PM26 °C25 °C94 %1007.5 hPa16.1 kmNNE (30°)16.7 km/hPartly Cloudy
7:55 PM26 °C24.7 °C92 %1007.5 hPa16.1 kmENE (70°)9.3 km/h0 mmPartly Cloudy
8:55 PM26.6 °C24.3 °C87 %1008.5 hPa16.1 kmEast (80°)13 km/hMostly Cloudy
9:14 PM27 °C24 °C84 %1008.5 hPa16.1 kmENE (70°)13 km/hMostly Cloudy
9:15 PM27 °C24 °C84 %1008.5 hPa16.1 kmENE (70°)13 km/hMostly Cloudy
9:18 PM27 °C25 °C89 %1008.5 hPa16.1 kmENE (70°)14.8 km/hMostly Cloudy
9:22 PM27 °C24 °C84 %1008.5 hPa16.1 kmENE (70°)16.7 km/hScattered Clouds
9:28 PM27 °C25 °C89 %1008.5 hPa16.1 kmENE (70°)14.8 km/hMostly Cloudy
9:44 PM27 °C25 °C89 %1008.5 hPa16.1 kmENE (60°)20.4 km/hRainLight Rain
9:47 PM26 °C25 °C94 %1008.5 hPa16.1 kmENE (60°)18.5 km/hRainLight Rain
9:53 PM26 °C24 °C89 %1008.8 hPa16.1 kmENE (70°)16.7 km/hMostly Cloudy
9:55 PM26 °C24.3 °C90 %1008.8 hPa16.1 kmENE (60°)20.4 km/h0 mmMostly Cloudy
10:09 PM26 °C24 °C89 %1008.8 hPa16.1 kmENE (60°)18.5 km/hRainLight Rain
10:19 PM25 °C24 °C94 %1008.8 hPa16.1 kmENE (70°)14.8 km/hPartly Cloudy
10:25 PM25 °C24 °C94 %1008.8 hPa14.5 kmENE (70°)14.8 km/hRainLight Rain
10:26 PM25 °C24 °C94 %1008.8 hPa12.9 kmEast (80°)14.8 km/hRain-ThunderstormLight Thunderstorms and Rain
10:41 PM25 °C24 °C94 %1008.8 hPa4.8 kmESE (120°)16.7 km/hRainHeavy Rain
10:49 PM25 °C24 °C94 %1008.8 hPa12.9 kmESE (120°)14.8 km/hScattered Clouds
10:55 PM25.2 °C24.3 °C95 %1008.5 hPa16.1 kmESE (120°)20.4 km/h2.54 mmScattered Clouds
10:57 PM25 °C24 °C94 %1008.5 hPa16.1 kmSE (130°)20.4 km/hMostly Cloudy
10:59 PM25 °C24 °C94 %1008.5 hPa16.1 kmSE (130°)18.5 km/hMostly Cloudy
11:02 PM25 °C24 °C94 %1008.5 hPa16.1 kmSE (130°)16.7 km/hMostly Cloudy
11:06 PM25 °C24 °C94 %1008.5 hPa16.1 kmSE (130°)14.8 km/hMostly Cloudy
11:19 PM25 °C24 °C94 %1008.5 hPa16.1 kmESE (120°)14.8 km/hRainLight Rain
11:34 PM25 °C24 °C94 %1008.5 hPa12.9 kmESE (110°)13 km/hRainLight Rain
11:39 PM25 °C24 °C94 %1008.5 hPa14.5 kmESE (110°)11.1 km/hRainLight Rain
11:49 PM25 °C24 °C94 %1008.5 hPa14.5 kmESE (120°)11.1 km/hRainLight Rain
11:50 PM25 °C24 °C94 %1008.5 hPa12.9 kmESE (120°)11.1 km/hRainRain
11:55 PM25.1 °C24.1 °C94 %1008.5 hPa11.3 kmSE (130°)13 km/h1.27 mmRainRain
11:58 PM25 °C24 °C94 %1008.5 hPa11.3 kmSE (130°)11.1 km/hRainLight Rain
Hourly data recorded from PGUA, located 0 kilometers away from Merizo, Guam







STORIES FROM OUR PARTNERS